Simultaneous Nadir Overpasses (SNOs) Predictions

Prediction of SNOs between LANDSAT-8 and METOP-B Satellite Orbit:

Table of predicted SNOs for the next 14.0 days since TLE Epoch: 1/12/2018
Index Date (LANDSAT-8) Time (LANDSAT-8) Lat,Lon (LANDSAT-8) SZA (LANDSAT-8 ) Date (METOP-B) Time (METOP-B) Lat,Lon (METOP-B) SZA (METOP-B ) Distance(km) Time Diff (sec)
1 01/13/2018 06:29:50 -80.92, -60.64 76.13 01/13/2018 06:28:36 -81.00, -60.87 76.10 9.60 74
2 01/13/2018 07:19:07 81.15, 110.31 104.36 01/13/2018 07:19:06 81.14, 110.27 104.35 0.90 1
3 01/13/2018 08:08:33 -81.16, -81.78 75.62 01/13/2018 08:09:46 -81.16, -81.90 75.60 2.15 73
4 01/16/2018 02:03:55 -81.11, 8.59 76.24 01/16/2018 02:02:49 -81.12, 8.64 76.26 1.07 66
5 01/16/2018 02:53:20 81.14, 176.68 103.82 01/16/2018 02:53:27 81.15, 176.81 103.84 2.12 7
6 01/18/2018 21:38:08 -81.13, 75.32 76.78 01/18/2018 21:37:11 -81.12, 75.18 76.82 2.48 57
7 01/18/2018 22:27:34 81.14,-116.98 103.23 01/18/2018 22:27:50 81.14,-117.05 103.23 1.26 16
8 01/21/2018 17:12:22 -81.13, 141.65 77.42 01/21/2018 17:11:33 -81.13, 141.71 77.43 1.11 49
9 01/21/2018 18:01:47 81.15, -50.31 102.63 01/21/2018 18:02:11 81.15, -50.16 102.66 2.51 24
10 01/24/2018 12:46:35 -81.12,-152.06 78.12 01/24/2018 12:45:55 -81.12,-152.16 78.14 1.73 40




NCC Satellite Simultaneous Nadir Overpasses (SNOs) Prediction Service
